St. Paul Lake Elmo, MN

6:35 PM CST on November 11, 2019 (GMT -0600)
St. Paul Lake Elmo

Weather History for K21D - September, 2019

Change the Weather History Date:

Saturday, September 7, 2019

  Actual Average (WUND) Record (WUND)
Temperature  
Mean Temperature 56 °F -  
Max Temperature 62 °F - - (-1)
Min Temperature 51 °F - - (-1)
Degree Days  
Heating Degree Days 8    
Growing Degree Days 6 (Base 50)    
Moisture  
Dew Point 55 °F    
Average Humidity 89    
Maximum Humidity 100    
Minimum Humidity 72    
Precipitation  
Precipitation 0.03 in - - ()
Sea Level Pressure  
Sea Level Pressure 30.11 in    
Wind  
Wind Speed 2 mph (WSW)    
Max Wind Speed 8 mph    
Max Gust Speed -    
Visibility 10 miles    
Events Rain    
Averages and records for this station are not official NWS values.
T = Trace of Precipitation, MM = Missing Value Source: NWS Daily Summary

Daily Weather History Graph

Daily Weather History Graph

Search for Another Location

Airport or City:

Astronomy

Sep. 07, 2019 Rise Set
Actual Time 6:40 AM CDT 7:37 PM CDT
Civil Twilight 6:10 AM CDT 8:07 PM CDT
Nautical Twilight 5:34 AM CDT 8:43 PM CDT
Astronomical Twilight 4:57 AM CDT 9:20 PM CDT
Moon 4:06 PM CDT (9/7) 12:20 AM CDT (9/7)
Length of Visible Light 13h 57m
Length of Day
12h 57m
Waxing Gibbous, 66% of the Moon is Illuminated
Sep 7
Waxing Gibbous
Sep 13
Full
Sep 21
Last Quarter
Sep 28
New
Oct 5
First Quarter

Hourly Weather History & Observations

Time (CDT) Temp. Dew Point Humidity Pressure Visibility Wind Dir Wind Speed Gust Speed Precip Events Conditions
12:15 AM 62.6 °F 55.4 °F 77% 30.09 in 10.0 mi WSW 3.5 mph - N/A   Scattered Clouds
12:16 AM 62.6 °F 55.4 °F 77% 30.09 in 10.0 mi WSW 3.5 mph - N/A   Scattered Clouds
12:36 AM 60.8 °F 55.4 °F 82% 30.09 in 10.0 mi Calm Calm - N/A   Clear
12:59 AM 59.0 °F 55.4 °F 88% 30.09 in 10.0 mi Calm Calm - N/A   Clear
1:16 AM 59.0 °F 55.4 °F 88% 30.10 in 10.0 mi Calm Calm - N/A   Clear
1:35 AM 57.2 °F 53.6 °F 88% 30.10 in 10.0 mi Calm Calm - N/A   Clear
1:55 AM 57.2 °F 53.6 °F 88% 30.10 in 10.0 mi Calm Calm - N/A   Clear
1:56 AM 57.2 °F 53.6 °F 88% 30.10 in 10.0 mi Calm Calm - N/A   Clear
2:15 AM 55.4 °F 53.6 °F 94% 30.10 in 10.0 mi Calm Calm - N/A   Clear
2:19 AM 55.4 °F 53.6 °F 94% 30.09 in 10.0 mi Calm Calm - N/A   Clear
2:55 AM 53.6 °F 53.6 °F 100% 30.10 in 10.0 mi Calm Calm - N/A   Clear
3:15 AM 55.4 °F 53.6 °F 94% 30.10 in 10.0 mi WSW 3.5 mph - N/A   Clear
3:16 AM 55.4 °F 53.6 °F 94% 30.10 in 10.0 mi WSW 3.5 mph - N/A   Clear
3:35 AM 51.8 °F 51.8 °F 100% 30.10 in 10.0 mi Calm Calm - N/A   Clear
3:36 AM 51.8 °F 51.8 °F 100% 30.10 in 10.0 mi Calm Calm - N/A   Clear
3:58 AM 55.4 °F 53.6 °F 94% 30.10 in 10.0 mi Calm Calm - N/A   Clear
4:16 AM 55.4 °F 53.6 °F 94% 30.11 in 10.0 mi Calm Calm - N/A   Clear
4:36 AM 55.4 °F 53.6 °F 94% 30.11 in 10.0 mi WSW 3.5 mph - N/A   Clear
4:55 AM 55.4 °F 53.6 °F 94% 30.11 in 10.0 mi WSW 3.5 mph - N/A   Clear
4:56 AM 55.4 °F 53.6 °F 94% 30.11 in 10.0 mi WSW 3.5 mph - N/A   Clear
5:15 AM 55.4 °F 53.6 °F 94% 30.10 in 10.0 mi WSW 3.5 mph - N/A   Clear
5:19 AM 55.4 °F 53.6 °F 94% 30.10 in 10.0 mi WSW 3.5 mph - N/A   Clear
5:38 AM 55.4 °F 53.6 °F 94% 30.10 in 10.0 mi Calm Calm - N/A   Clear
5:55 AM 53.6 °F 53.6 °F 100% 30.10 in 10.0 mi Calm Calm - N/A   Clear
6:15 AM 53.6 °F 53.6 °F 100% 30.10 in 10.0 mi Calm Calm - N/A   Clear
6:16 AM 53.6 °F 53.6 °F 100% 30.10 in 10.0 mi Calm Calm - N/A   Clear
6:35 AM 51.8 °F 51.8 °F 100% 30.11 in 10.0 mi Calm Calm - N/A   Clear
6:36 AM 51.8 °F 51.8 °F 100% 30.11 in 10.0 mi Calm Calm - N/A   Clear
6:58 AM 51.8 °F 51.8 °F 100% 30.11 in 10.0 mi Calm Calm - N/A   Clear
7:16 AM 51.8 °F 51.8 °F 100% 30.11 in 10.0 mi Calm Calm - N/A   Clear
7:35 AM 51.8 °F 51.8 °F 100% 30.10 in 10.0 mi Calm Calm - N/A   Clear
7:55 AM 55.4 °F 55.4 °F 100% 30.10 in 10.0 mi Calm Calm - N/A   Clear
7:56 AM 55.4 °F 55.4 °F 100% 30.10 in 10.0 mi Calm Calm - N/A   Clear
8:15 AM 57.2 °F 55.4 °F 94% 30.10 in 10.0 mi WSW 3.5 mph - N/A   Clear
8:37 AM 59.0 °F 55.4 °F 88% 30.11 in 10.0 mi Calm Calm - N/A   Clear
8:55 AM 59.0 °F 55.4 °F 88% 30.11 in 10.0 mi Calm Calm - N/A   Clear
9:15 AM 59.0 °F 55.4 °F 88% 30.10 in 10.0 mi WSW 4.6 mph - N/A   Clear
9:16 AM 59.0 °F 55.4 °F 88% 30.10 in 10.0 mi WSW 4.6 mph - N/A   Clear
9:35 AM 59.0 °F 55.4 °F 88% 30.10 in 10.0 mi WSW 4.6 mph - N/A   Clear
9:36 AM 59.0 °F 55.4 °F 88% 30.10 in 10.0 mi WSW 4.6 mph - N/A   Clear
9:58 AM 59.0 °F 55.4 °F 88% 30.09 in 10.0 mi Calm Calm - N/A   Clear
10:17 AM 59.0 °F 55.4 °F 88% 30.09 in 10.0 mi Calm Calm - N/A   Clear
10:35 AM 60.8 °F 55.4 °F 82% 30.11 in 10.0 mi Calm Calm - N/A   Clear
10:36 AM 60.8 °F 55.4 °F 82% 30.11 in 10.0 mi Calm Calm - N/A   Clear
10:55 AM 60.8 °F 55.4 °F 82% 30.11 in 10.0 mi Calm Calm - N/A   Clear
10:56 AM 60.8 °F 55.4 °F 82% 30.11 in 10.0 mi Calm Calm - N/A   Clear
11:15 AM 60.8 °F 55.4 °F 82% 30.11 in 10.0 mi WSW 3.5 mph - N/A   Clear
11:19 AM 60.8 °F 55.4 °F 82% 30.11 in 10.0 mi Calm Calm - N/A   Clear
11:37 AM 62.6 °F 55.4 °F 77% 30.12 in 10.0 mi Calm Calm - N/A   Clear
11:56 AM 62.6 °F 55.4 °F 77% 30.11 in 10.0 mi Calm Calm - N/A   Clear
12:15 PM 62.6 °F 55.4 °F 77% 30.11 in 10.0 mi Calm Calm - N/A   Clear
12:35 PM 62.6 °F 53.6 °F 72% 30.11 in 10.0 mi Calm Calm - N/A   Clear
12:39 PM 62.6 °F 53.6 °F 72% 30.11 in 10.0 mi Calm Calm - N/A   Clear
12:57 PM 62.6 °F 53.6 °F 72% 30.11 in 10.0 mi Calm Calm - N/A   Clear
1:15 PM 62.6 °F 55.4 °F 77% 30.12 in 10.0 mi Calm Calm - N/A   Clear
1:35 PM 62.6 °F 55.4 °F 77% 30.12 in 10.0 mi WSW 3.5 mph - N/A   Clear
1:36 PM 62.6 °F 55.4 °F 77% 30.12 in 10.0 mi WSW 3.5 mph - N/A   Clear
1:55 PM 62.6 °F 55.4 °F 77% 30.12 in 10.0 mi WSW 4.6 mph - N/A   Scattered Clouds
1:59 PM 62.6 °F 55.4 °F 77% 30.12 in 10.0 mi Calm Calm - N/A Rain Rain
2:16 PM 60.8 °F 57.2 °F 88% 30.12 in 10.0 mi Calm Calm - N/A   Light Drizzle
2:35 PM 60.8 °F 57.2 °F 88% 30.12 in 10.0 mi WSW 8.1 mph - N/A Rain Light Rain
2:36 PM 60.8 °F 57.2 °F 88% 30.12 in 10.0 mi WSW 8.1 mph - N/A Rain Light Rain
2:55 PM 60.8 °F 55.4 °F 82% 30.11 in 10.0 mi Calm Calm - N/A Rain Light Rain
2:56 PM 60.8 °F 55.4 °F 82% 30.11 in 10.0 mi Calm Calm - N/A Rain Light Rain
3:17 PM 59.0 °F 55.4 °F 88% 30.11 in 10.0 mi Calm Calm - 0.01 in Rain Light Rain
3:36 PM 59.0 °F 57.2 °F 94% 30.11 in 10.0 mi Calm Calm - 0.02 in Rain Light Rain
3:55 PM 59.0 °F 55.4 °F 88% 30.11 in 10.0 mi Calm Calm - 0.02 in   Light Drizzle
3:56 PM 59.0 °F 55.4 °F 88% 30.11 in 10.0 mi Calm Calm - 0.02 in   Light Drizzle
4:15 PM 59.0 °F 57.2 °F 94% 30.11 in 10.0 mi Calm Calm - N/A   Light Drizzle
4:38 PM 59.0 °F 55.4 °F 88% 30.10 in 10.0 mi Calm Calm - 0.01 in   Light Drizzle
4:57 PM 59.0 °F 55.4 °F 88% 30.10 in 10.0 mi Calm Calm - 0.01 in   Mostly Cloudy
5:16 PM 59.0 °F 55.4 °F 88% 30.10 in 10.0 mi Calm Calm - N/A   Overcast
5:35 PM 59.0 °F 55.4 °F 88% 30.09 in 10.0 mi Calm Calm - N/A   Overcast
5:36 PM 59.0 °F 55.4 °F 88% 30.09 in 10.0 mi Calm Calm - N/A   Overcast
5:55 PM 59.0 °F 55.4 °F 88% 30.09 in 10.0 mi Calm Calm - N/A   Overcast
5:59 PM 59.0 °F 55.4 °F 88% 30.09 in 10.0 mi Calm Calm - N/A   Overcast
6:17 PM 59.0 °F 55.4 °F 88% 30.10 in 10.0 mi WSW 3.5 mph - N/A   Overcast
6:36 PM 59.0 °F 55.4 °F 88% 30.09 in 10.0 mi WSW 5.8 mph - N/A   Overcast
6:55 PM 59.0 °F 57.2 °F 94% 30.09 in 10.0 mi Calm Calm - N/A   Overcast
6:56 PM 59.0 °F 57.2 °F 94% 30.09 in 10.0 mi Calm Calm - N/A   Overcast
7:15 PM 59.0 °F 55.4 °F 88% 30.10 in 10.0 mi Calm Calm - N/A   Overcast
7:16 PM 59.0 °F 55.4 °F 88% 30.10 in 10.0 mi Calm Calm - N/A   Overcast
7:38 PM 59.0 °F 55.4 °F 88% 30.10 in 10.0 mi Calm Calm - N/A   Overcast
7:56 PM 59.0 °F 55.4 °F 88% 30.10 in 10.0 mi WSW 3.5 mph - N/A Rain Light Rain
8:15 PM 59.0 °F 55.4 °F 88% 30.11 in 10.0 mi WSW 4.6 mph - N/A Rain Rain
8:16 PM 59.0 °F 55.4 °F 88% 30.11 in 10.0 mi WSW 4.6 mph - N/A Rain Rain
8:35 PM 59.0 °F 55.4 °F 88% 30.11 in 10.0 mi WSW 5.8 mph - N/A Rain Light Rain
8:36 PM 59.0 °F 55.4 °F 88% 30.11 in 10.0 mi WSW 5.8 mph - N/A Rain Light Rain
8:55 PM 57.2 °F 55.4 °F 94% 30.11 in 10.0 mi WSW 6.9 mph - N/A Rain Light Rain
8:59 PM 57.2 °F 55.4 °F 94% 30.11 in 10.0 mi WSW 6.9 mph - N/A Rain Light Rain
9:17 PM 57.2 °F 55.4 °F 94% 30.12 in 10.0 mi WSW 4.6 mph - N/A   Overcast
9:36 PM 57.2 °F 53.6 °F 88% 30.12 in 10.0 mi WSW 6.9 mph - N/A Rain Light Rain
9:55 PM 55.4 °F 53.6 °F 94% 30.13 in 10.0 mi WSW 4.6 mph - N/A   Overcast
9:56 PM 55.4 °F 53.6 °F 94% 30.13 in 10.0 mi WSW 5.8 mph - N/A   Overcast
10:15 PM 55.4 °F 53.6 °F 94% 30.13 in 10.0 mi WSW 4.6 mph - N/A   Overcast
10:16 PM 55.4 °F 53.6 °F 94% 30.13 in 10.0 mi WSW 4.6 mph - N/A   Overcast
10:38 PM 55.4 °F 51.8 °F 88% 30.13 in 10.0 mi WSW 4.6 mph - N/A   Light Drizzle
10:56 PM 55.4 °F 51.8 °F 88% 30.13 in 10.0 mi WSW 4.6 mph - N/A   Overcast
11:15 PM 55.4 °F 51.8 °F 88% 30.13 in 10.0 mi WSW 5.8 mph - N/A   Overcast
11:16 PM 55.4 °F 51.8 °F 88% 30.13 in 10.0 mi WSW 4.6 mph - N/A   Overcast
11:35 PM 55.4 °F 51.8 °F 88% 30.13 in 10.0 mi WSW 4.6 mph - N/A   Scattered Clouds
11:36 PM 55.4 °F 51.8 °F 88% 30.13 in 10.0 mi WSW 4.6 mph - N/A   Scattered Clouds
11:59 PM 55.4 °F 51.8 °F 88% 30.12 in 10.0 mi WSW 4.6 mph - N/A   Mostly Cloudy